Wetterdaten: aktuell Samstag, 19.05.2018 07:21
Datum Zeit Temp. A. UV X Feuchte A. Luftdruck Regen Wind Richtung Richtung Windben
19.05.2018 07:21 19,3 C 0,0 UV-I 64 % 1020,7 hPa 0,0 l/m 0,0 km/h N 360 0,0 km/h
19.05.2018 07:20 19,3 C 0,0 UV-I 64 % 1020,5 hPa 0,0 l/m 0,0 km/h N 360 0,0 km/h
19.05.2018 07:15 19,1 C 0,0 UV-I 64 % 1020,5 hPa 0,0 l/m 0,0 km/h N 360 0,0 km/h
19.05.2018 07:10 19,3 C 0,0 UV-I 64 % 1020,5 hPa 0,0 l/m 0,0 km/h N 360 0,0 km/h
19.05.2018 07:05 19,2 C 0,0 UV-I 64 % 1020,5 hPa 0,0 l/m 0,0 km/h N 360 0,0 km/h
19.05.2018 07:01 19,1 C 0,0 UV-I 64 % 1020,7 hPa 0,0 l/m 0,0 km/h N 360 0,0 km/h
19.05.2018 06:56 19,1 C 0,0 UV-I 64 % 1020,7 hPa 0,0 l/m 0,0 km/h N 360 0,0 km/h
19.05.2018 06:51 19,1 C 0,0 UV-I 64 % 1020,7 hPa 0,0 l/m 0,0 km/h N 360 0,0 km/h
19.05.2018 06:46 19,1 C 0,0 UV-I 64 % 1020,7 hPa 0,0 l/m 0,0 km/h N 360 0,0 km/h
19.05.2018 06:41 19,2 C 0,0 UV-I 64 % 1020,7 hPa 0,0 l/m 0,0 km/h N 360 0,0 km/h
19.05.2018 06:36 19,2 C 0,0 UV-I 64 % 1020,6 hPa 0,0 l/m 0,0 km/h N 360 0,0 km/h
19.05.2018 06:31 19,1 C 0,0 UV-I 64 % 1020,6 hPa 0,0 l/m 0,0 km/h N 360 0,0 km/h
19.05.2018 06:26 19,1 C 0,0 UV-I 64 % 1020,6 hPa 0,0 l/m 0,0 km/h N 360 0,0 km/h
19.05.2018 06:21 19,1 C 0,0 UV-I 64 % 1020,6 hPa 0,0 l/m 0,0 km/h N 360 0,0 km/h
19.05.2018 06:16 19,1 C 0,0 UV-I 64 % 1020,2 hPa 0,0 l/m 0,0 km/h N 360 0,0 km/h
19.05.2018 06:11 19,1 C 0,0 UV-I 64 % 1020,2 hPa 0,0 l/m 0,0 km/h N 360 0,0 km/h
19.05.2018 06:06 19,0 C 0,0 UV-I 64 % 1020,2 hPa 0,0 l/m 0,0 km/h N 360 0,0 km/h
19.05.2018 06:01 19,1 C 0,0 UV-I 64 % 1020,2 hPa 0,0 l/m 0,0 km/h N 360 0,0 km/h
19.05.2018 05:56 19,0 C 0,0 UV-I 64 % 1020,5 hPa 0,0 l/m 0,0 km/h N 360 0,0 km/h
19.05.2018 05:51 19,1 C 0,0 UV-I 64 % 1020,5 hPa 0,0 l/m 0,0 km/h N 360 0,0 km/h
19.05.2018 05:46 19,1 C 0,0 UV-I 64 % 1020,5 hPa 0,0 l/m 0,0 km/h N 360 0,0 km/h
19.05.2018 05:41 19,3 C 0,0 UV-I 64 % 1020,5 hPa 0,0 l/m 0,0 km/h N 360 0,0 km/h
19.05.2018 05:36 19,3 C 0,0 UV-I 64 % 1020,3 hPa 0,0 l/m 0,0 km/h N 360 0,0 km/h
19.05.2018 05:31 19,3 C 0,0 UV-I 64 % 1020,3 hPa 0,0 l/m 0,0 km/h N 360 0,0 km/h
19.05.2018 05:26 19,3 C 0,0 UV-I 64 % 1020,3 hPa 0,0 l/m 0,0 km/h N 360 0,0 km/h
19.05.2018 05:21 19,3 C 0,0 UV-I 64 % 1020,3 hPa 0,0 l/m 0,0 km/h N 360 0,0 km/h
19.05.2018 05:16 19,4 C 0,0 UV-I 64 % 1020,1 hPa 0,0 l/m 0,0 km/h N 360 0,0 km/h
19.05.2018 05:11 19,4 C 0,0 UV-I 64 % 1020,1 hPa 0,0 l/m 0,0 km/h N 360 0,0 km/h
19.05.2018 05:06 19,4 C 0,0 UV-I 64 % 1020,1 hPa 0,0 l/m 0,0 km/h N 360 0,0 km/h
19.05.2018 05:01 19,6 C 0,0 UV-I 65 % 1020,1 hPa 0,0 l/m 0,0 km/h N 360 0,0 km/h
19.05.2018 04:56 19,4 C 0,0 UV-I 64 % 1020,1 hPa 0,0 l/m 0,0 km/h N 360 0,0 km/h
19.05.2018 04:51 19,4 C 0,0 UV-I 64 % 1020,1 hPa 0,0 l/m 0,0 km/h N 360 0,0 km/h
19.05.2018 04:46 19,4 C 0,0 UV-I 64 % 1020,1 hPa 0,0 l/m 0,0 km/h N 360 0,0 km/h
19.05.2018 04:41 19,6 C 0,0 UV-I 65 % 1020,1 hPa 0,0 l/m 0,0 km/h N 360 0,0 km/h
19.05.2018 04:36 19,6 C 0,0 UV-I 65 % 1020,4 hPa 0,0 l/m 0,0 km/h N 360 0,0 km/h
19.05.2018 04:31 19,6 C 0,0 UV-I 65 % 1020,4 hPa 0,0 l/m 0,0 km/h N 360 0,0 km/h
19.05.2018 04:26 19,6 C 0,0 UV-I 65 % 1020,4 hPa 0,0 l/m 0,0 km/h N 360 0,0 km/h
19.05.2018 04:21 19,8 C 0,0 UV-I 65 % 1020,4 hPa 0,0 l/m 0,0 km/h N 360 0,0 km/h
19.05.2018 04:16 19,7 C 0,0 UV-I 65 % 1020,6 hPa 0,0 l/m 0,0 km/h N 360 0,0 km/h
19.05.2018 04:11 19,8 C 0,0 UV-I 65 % 1020,6 hPa 0,0 l/m 0,0 km/h N 360 0,0 km/h
19.05.2018 04:06 19,8 C 0,0 UV-I 65 % 1020,6 hPa 0,0 l/m 0,0 km/h N 360 0,0 km/h
19.05.2018 04:01 19,9 C 0,0 UV-I 65 % 1020,6 hPa 0,0 l/m 0,0 km/h N 360 0,0 km/h
19.05.2018 03:56 19,9 C 0,0 UV-I 65 % 1020,8 hPa 0,0 l/m 0,0 km/h N 360 0,0 km/h
19.05.2018 03:51 19,9 C 0,0 UV-I 65 % 1020,8 hPa 0,0 l/m 0,0 km/h N 360 0,0 km/h
19.05.2018 03:46 19,9 C 0,0 UV-I 65 % 1020,8 hPa 0,0 l/m 0,0 km/h N 360 0,0 km/h
19.05.2018 03:41 20,0 C 0,0 UV-I 66 % 1020,8 hPa 0,0 l/m 0,0 km/h N 360 0,0 km/h
19.05.2018 03:36 20,0 C 0,0 UV-I 66 % 1020,7 hPa 0,0 l/m 0,0 km/h N 360 0,0 km/h
19.05.2018 03:31 20,0 C 0,0 UV-I 66 % 1020,7 hPa 0,0 l/m 0,0 km/h N 360 0,0 km/h
19.05.2018 03:26 20,1 C 0,0 UV-I 66 % 1020,7 hPa 0,0 l/m 0,0 km/h N 360 0,0 km/h
19.05.2018 03:21 20,2 C 0,0 UV-I 66 % 1020,7 hPa 0,0 l/m 0,0 km/h N 360 0,0 km/h
19.05.2018 03:16 20,2 C 0,0 UV-I 66 % 1020,7 hPa 0,0 l/m 0,0 km/h N 360 0,0 km/h
19.05.2018 03:11 20,1 C 0,0 UV-I 66 % 1020,7 hPa 0,0 l/m 0,0 km/h N 360 0,0 km/h
19.05.2018 03:06 20,2 C 0,0 UV-I 66 % 1020,7 hPa 0,0 l/m 0,0 km/h N 360 0,0 km/h
19.05.2018 03:01 20,2 C 0,0 UV-I 66 % 1020,7 hPa 0,0 l/m 0,0 km/h N 360 0,0 km/h
19.05.2018 02:56 20,2 C 0,0 UV-I 66 % 1021,2 hPa 0,0 l/m 0,0 km/h N 360 0,0 km/h
19.05.2018 02:51 20,2 C 0,0 UV-I 66 % 1021,2 hPa 0,0 l/m 0,0 km/h N 360 0,0 km/h
19.05.2018 02:46 20,3 C 0,0 UV-I 66 % 1021,2 hPa 0,0 l/m 0,0 km/h N 360 0,0 km/h
19.05.2018 02:41 20,3 C 0,0 UV-I 66 % 1021,2 hPa 0,0 l/m 0,0 km/h N 360 0,0 km/h
19.05.2018 02:36 20,4 C 0,0 UV-I 66 % 1021,1 hPa 0,0 l/m 0,0 km/h N 360 0,0 km/h
19.05.2018 02:31 20,5 C 0,0 UV-I 66 % 1021,1 hPa 0,0 l/m 0,0 km/h N 360 0,0 km/h
19.05.2018 02:26 20,6 C 0,0 UV-I 67 % 1021,1 hPa 0,0 l/m 0,0 km/h N 360 0,0 km/h
19.05.2018 02:21 20,6 C 0,0 UV-I 67 % 1021,1 hPa 0,0 l/m 0,0 km/h N 360 0,0 km/h
19.05.2018 02:16 20,6 C 0,0 UV-I 67 % 1021,2 hPa 0,0 l/m 0,0 km/h N 360 0,0 km/h
19.05.2018 02:11 20,8 C 0,0 UV-I 67 % 1021,2 hPa 0,0 l/m 0,0 km/h N 360 0,0 km/h
19.05.2018 02:06 20,8 C 0,0 UV-I 67 % 1021,2 hPa 0,0 l/m 0,0 km/h N 360 0,0 km/h
19.05.2018 02:01 20,9 C 0,0 UV-I 67 % 1021,2 hPa 0,0 l/m 0,0 km/h N 360 0,0 km/h
19.05.2018 01:56 21,1 C 0,0 UV-I 67 % 1021,3 hPa 0,0 l/m 0,0 km/h N 360 0,0 km/h
19.05.2018 01:51 21,0 C 0,0 UV-I 67 % 1021,3 hPa 0,0 l/m 0,0 km/h N 360 0,0 km/h
19.05.2018 01:46 21,1 C 0,0 UV-I 67 % 1021,3 hPa 0,0 l/m 0,0 km/h N 360 0,0 km/h
19.05.2018 01:41 21,1 C 0,0 UV-I 67 % 1021,3 hPa 0,0 l/m 0,0 km/h N 360 0,0 km/h
19.05.2018 01:36 21,2 C 0,0 UV-I 68 % 1021,3 hPa 0,0 l/m 0,0 km/h N 360 0,0 km/h
19.05.2018 01:31 21,2 C 0,0 UV-I 68 % 1021,3 hPa 0,0 l/m 0,0 km/h N 360 0,0 km/h
19.05.2018 01:26 21,3 C 0,0 UV-I 68 % 1021,3 hPa 0,0 l/m 0,0 km/h N 360 0,0 km/h
19.05.2018 01:21 21,3 C 0,0 UV-I 68 % 1021,3 hPa 0,0 l/m 0,0 km/h N 360 0,0 km/h
19.05.2018 01:16 21,5 C 0,0 UV-I 68 % 1021,4 hPa 0,0 l/m 0,0 km/h N 360 0,0 km/h
19.05.2018 01:11 21,5 C 0,0 UV-I 68 % 1021,4 hPa 0,0 l/m 0,0 km/h N 360 0,0 km/h
19.05.2018 01:06 21,5 C 0,0 UV-I 68 % 1021,4 hPa 0,0 l/m 0,0 km/h N 360 0,0 km/h
19.05.2018 01:01 21,5 C 0,0 UV-I 68 % 1021,4 hPa 0,0 l/m 0,0 km/h N 360 0,0 km/h
19.05.2018 00:56 21,8 C 0,0 UV-I 69 % 1021,6 hPa 0,0 l/m 0,0 km/h N 360 0,0 km/h
19.05.2018 00:51 21,8 C 0,0 UV-I 69 % 1021,6 hPa 0,0 l/m 0,0 km/h N 360 0,0 km/h
19.05.2018 00:46 21,8 C 0,0 UV-I 69 % 1021,6 hPa 0,0 l/m 0,0 km/h N 360 0,0 km/h
19.05.2018 00:41 22,0 C 0,0 UV-I 69 % 1021,6 hPa 0,0 l/m 0,0 km/h N 360 0,0 km/h
19.05.2018 00:36 22,0 C 0,0 UV-I 69 % 1021,7 hPa 0,0 l/m 0,0 km/h N 360 0,0 km/h
19.05.2018 00:31 22,1 C 0,0 UV-I 69 % 1021,7 hPa 0,0 l/m 0,0 km/h N 360 0,0 km/h
19.05.2018 00:26 22,1 C 0,0 UV-I 69 % 1021,7 hPa 0,0 l/m 0,0 km/h N 360 0,0 km/h
19.05.2018 00:21 22,2 C 0,0 UV-I 69 % 1021,7 hPa 0,0 l/m 0,0 km/h N 360 0,0 km/h
19.05.2018 00:16 22,4 C 0,0 UV-I 70 % 1021,5 hPa 0,0 l/m 0,0 km/h N 360 0,0 km/h
19.05.2018 00:11 22,4 C 0,0 UV-I 70 % 1021,5 hPa 0,0 l/m 0,0 km/h N 360 0,0 km/h
19.05.2018 00:06 22,6 C 0,0 UV-I 70 % 1021,5 hPa 0,0 l/m 0,0 km/h N 360 0,0 km/h
19.05.2018 00:01 22,6 C 0,0 UV-I 70 % 1021,5 hPa 0,0 l/m 0,0 km/h N 360 0,0 km/h
_ Min-Zeit 05:56 00:01 - 04:41 - 00:01 - - 00:01
Minimum _ 19,0 C 0,0 UV-I - 1020,1 hPa - 0,0 km/h - - 0,0 km/h
_ Max-Zeit 00:01 00:01 00:01 00:21 00:01 00:01 - - 00:01
Maximum _ 22,6 C 0,0 UV-I 70 % 1021,7 hPa 0,0 l/m 0,0 km/h
N
- - 0,0 km/h
N
Durchschnitt _ 20,2 C 0,0 UV-I #25 min. 1020,8 hPa #0,0 l/m 0,0 km/h N - 0,0 km/h